Abbotsford, British Columbia

2:42 PM PST on January 23, 2018 (GMT -0800)
Abbotsford

Weather History for CYXX - January, 2014

Change the Weather History Date:

Wednesday, January 1, 2014

  Actual Average Record
Temperature  
Mean Temperature 41 °F -  
Max Temperature 44 °F 42 °F 53 °F (1997)
Min Temperature 38 °F 30 °F 19 °F (2015)
Degree Days  
Heating Degree Days 24    
Moisture  
Dew Point 40 °F    
Average Humidity 99    
Maximum Humidity 100    
Minimum Humidity 87    
Precipitation  
Precipitation 0.00 in 0.26 in - ()
Sea Level Pressure  
Sea Level Pressure 30.39 in    
Wind  
Wind Speed 4 mph ()    
Max Wind Speed 7 mph    
Max Gust Speed -    
Visibility 4.3 miles    
Events Fog , Rain    
Averages and records for this station are not official NWS values.
T = Trace of Precipitation, MM = Missing Value Source: Averaged Metar Reports

Daily Weather History Graph

Daily Weather History Graph

Search for Another Location

Airport or City:

Trip Planner

Search our weather history database for the weather conditions in past years. The results will help you decide how hot, cold, wet, or windy it might be!

Date:

Astronomy

Jan. 01, 2014 Rise Set
Actual Time 8:03 AM PST 4:22 PM PST
Civil Twilight 7:26 AM PST 5:00 PM PST
Nautical Twilight 6:46 AM PST 5:40 PM PST
Astronomical Twilight 6:07 AM PST 6:18 PM PST
Moon 7:52 AM PST (1/1) 5:21 PM PST (1/1)
Length of Visible Light 9h 33m
Length of Day
8h 19m
New Moon, 0% of the Moon is Illuminated
Jan 1
New Moon
Jan 7
First Quarter
Jan 15
Full
Jan 23
Last Quarter
Jan 30
New

Hourly Weather History & Observations

Time (PST) Temp. Windchill Dew Point Humidity Pressure Visibility Wind Dir Wind Speed Gust Speed Precip Events Conditions
12:00 AM 41.0 °F - 41.0 °F 100% 30.40 in 0.6 mi Calm Calm - N/A   Overcast
1:00 AM 41.0 °F 39.0 °F 41.0 °F 100% 30.41 in 2.0 mi NNE 3.5 mph - N/A   Overcast
2:00 AM 41.0 °F 37.1 °F 41.0 °F 100% 30.43 in 2.0 mi North 5.8 mph - N/A   Overcast
3:00 AM 41.0 °F 37.1 °F 41.0 °F 100% 30.44 in 0.6 mi NNE 5.8 mph - N/A   Overcast
4:00 AM 40 °F - 40 °F 100% 30.43 in 2 mi NNE 5.8 mph - -   Overcast
4:00 AM 39.2 °F 35.0 °F 39.2 °F 100% 30.43 in 2.0 mi NNE 5.8 mph - N/A   Overcast
4:47 AM 39.2 °F 35.0 °F 39.2 °F 100% 30.43 in 0.1 mi NNE 5.8 mph - N/A   Mist
5:00 AM 39.2 °F 35.9 °F 39.2 °F 100% 30.43 in 0.2 mi NNE 4.6 mph - N/A Fog Fog
5:13 AM 39.2 °F 35.0 °F 39.2 °F 100% 30.42 in 0.5 mi NNE 5.8 mph - N/A Fog Mist
6:00 AM 39.2 °F 35.0 °F 39.2 °F 100% 30.41 in 0.8 mi NNE 5.8 mph - N/A   Mostly Cloudy
7:00 AM 39.2 °F 35.0 °F 39.2 °F 100% 30.42 in 0.2 mi NNE 5.8 mph - N/A Fog Mist
7:31 AM 39.2 °F 35.9 °F 39.2 °F 100% 30.41 in 1.0 mi NNE 4.6 mph - N/A   Mostly Cloudy
8:00 AM 39.2 °F 34.2 °F 39.2 °F 100% 30.41 in 1.0 mi NNE 6.9 mph - N/A   Mostly Cloudy
8:21 AM 39.2 °F 34.2 °F 39.2 °F 100% 30.40 in 0.6 mi NNE 6.9 mph - N/A   Mostly Cloudy
9:00 AM 39.2 °F 35.9 °F 39.2 °F 100% 30.41 in 0.6 mi North 4.6 mph - N/A   Mostly Cloudy
9:20 AM 41.0 °F 37.1 °F 41.0 °F 100% 30.42 in 1.2 mi NNE 5.8 mph - N/A   Mostly Cloudy
9:43 AM 41.0 °F 39.0 °F 41.0 °F 100% 30.43 in 2.0 mi NNE 3.5 mph - N/A   Mostly Cloudy
10:00 AM 41 °F - 41 °F 100% 30.43 in 3 mi NNE 5.8 mph - -   Mist
10:00 AM 41.0 °F 37.1 °F 41.0 °F 100% 30.43 in 3.0 mi NNE 5.8 mph - N/A   Mostly Cloudy
11:00 AM 42.8 °F 39.3 °F 42.8 °F 100% 30.40 in 30.0 mi NNE 5.8 mph - N/A   Overcast
12:00 PM 44.6 °F 42.2 °F 42.8 °F 93% 30.38 in 30.0 mi NNE 4.6 mph - N/A   Overcast
1:00 PM 44.6 °F 40.7 °F 41.0 °F 87% 30.37 in 30.0 mi NNE 6.9 mph - N/A   Overcast
7:00 PM 42.8 °F 39.3 °F - N/A% 30.35 in 15.0 mi North 5.8 mph - N/A   Overcast
8:00 PM 42.8 °F 39.3 °F - N/A% 30.32 in 15.0 mi NE 5.8 mph - N/A Rain Light Rain
9:00 PM 42.8 °F 39.3 °F - N/A% 30.31 in 15.0 mi NE 5.8 mph - N/A   Overcast
10:00 PM 42 °F - - % 30.30 in 15 mi Calm Calm - -   Overcast
10:00 PM 42.8 °F 39.3 °F - N/A% 30.30 in 15.0 mi North 5.8 mph - N/A   Overcast
11:00 PM 42.8 °F 39.3 °F - N/A% 30.29 in 10.0 mi North 5.8 mph - N/A   Overcast